• In Germany
  • List of Countries
  • For 7 days
  • Water Temperature
  • Satellite Maps
  • Weather Map
  • Weather Widgets
  • user-avatar
    Login

    Hourly Weather Brisbane

    Today, 20 September, Wednesday

    Time Temperature Precipitation Wind Pressure Humidity
    00:00 +20°C° 0 mm 3 mps 761 mmHg 64%
    01:00 +19°C° 0 mm 3 mps 761 mmHg 63%
    02:00 +19°C° 0 mm 3 mps 761 mmHg 60%
    03:00 +18°C° 0 mm 3 mps 761 mmHg 57%
    04:00 +17°C° 0 mm 3 mps 761 mmHg 55%
    05:00 +18°C° 0 mm 3 mps 761 mmHg 55%
    06:00 +18°C° 0 mm 3 mps 762 mmHg 54%
    07:00 +19°C° 0 mm 4 mps 762 mmHg 53%
    08:00 +21°C° 0 mm 3 mps 762 mmHg 48%
    09:00 +25°C° 0 mm 3 mps 762 mmHg 44%
    10:00 +27°C° 0 mm 3 mps 762 mmHg 39%
    11:00 +29°C° 0 mm 3 mps 761 mmHg 36%
    12:00 +30°C° 0 mm 4 mps 761 mmHg 32%
    13:00 +32°C° 0 mm 4 mps 760 mmHg 28%
    14:00 +29°C° 0 mm 4 mps 760 mmHg 34%
    15:00 +28°C° 0 mm 4 mps 760 mmHg 40%
    16:00 +26°C° 0 mm 4 mps 759 mmHg 48%
    17:00 +23°C° 0 mm 4 mps 760 mmHg 58%
    18:00 +21°C° 0 mm 4 mps 760 mmHg 68%
    19:00 +19°C° 0 mm 4 mps 761 mmHg 78%
    20:00 +19°C° 0 mm 3 mps 761 mmHg 80%
    21:00 +18°C° 0 mm 2 mps 762 mmHg 82%
    22:00 +18°C° 0 mm 2 mps 762 mmHg 83%
    23:00 +18°C° 0 mm 2 mps 762 mmHg 83%

    Tomorrow, 21 September, Thursday

    Time Temperature Precipitation Wind Pressure Humidity
    00:00 +20°C° 0 mm 1 mps 762 mmHg 82%
    01:00 +20°C° 0 mm 1 mps 762 mmHg 81%
    02:00 +19°C° 0 mm 1 mps 762 mmHg 82%
    03:00 +19°C° 0 mm 1 mps 762 mmHg 83%
    04:00 +19°C° 0 mm 1 mps 762 mmHg 84%
    05:00 +20°C° 0 mm 1 mps 762 mmHg 82%
    06:00 +20°C° 0 mm 1 mps 762 mmHg 81%
    07:00 +21°C° 0 mm 1 mps 763 mmHg 79%
    08:00 +21°C° 0 mm 2 mps 763 mmHg 72%
    09:00 +23°C° 0 mm 2 mps 763 mmHg 65%
    10:00 +25°C° 0 mm 2 mps 763 mmHg 58%
    11:00 +25°C° 0 mm 3 mps 762 mmHg 56%
    12:00 +26°C° 0 mm 3 mps 761 mmHg 55%
    13:00 +27°C° 0 mm 3 mps 761 mmHg 53%
    14:00 +27°C° 0 mm 3 mps 760 mmHg 54%
    15:00 +26°C° 0 mm 4 mps 760 mmHg 56%
    16:00 +26°C° 0 mm 4 mps 760 mmHg 57%
    17:00 +25°C° 0 mm 4 mps 760 mmHg 65%
    18:00 +22°C° 0 mm 4 mps 760 mmHg 73%
    19:00 +21°C° 0 mm 4 mps 761 mmHg 81%
    20:00 +20°C° 0 mm 4 mps 761 mmHg 84%
    21:00 +20°C° 0 mm 3 mps 761 mmHg 87%
    22:00 +19°C° 0 mm 3 mps 762 mmHg 90%
    23:00 +20°C° 0 mm 3 mps 762 mmHg 90%

    Day after tomorrow, 22 September, Friday

    Time Temperature Precipitation Wind Pressure Humidity
    00:00 +20°C° 0 mm 3 mps 762 mmHg 90%
    01:00 +20°C° 0 mm 2 mps 762 mmHg 90%
    02:00 +20°C° 0 mm 3 mps 761 mmHg 91%
    03:00 +20°C° 0 mm 3 mps 761 mmHg 92%
    04:00 +19°C° 0 mm 3 mps 761 mmHg 93%
    05:00 +20°C° 0 mm 3 mps 762 mmHg 90%
    06:00 +20°C° 0 mm 3 mps 762 mmHg 86%
    07:00 +21°C° 0 mm 3 mps 762 mmHg 83%
    08:00 +24°C° 0 mm 3 mps 762 mmHg 73%
    09:00 +26°C° 0 mm 4 mps 762 mmHg 62%
    10:00 +28°C° 0 mm 4 mps 762 mmHg 52%
    11:00 +29°C° 0 mm 4 mps 761 mmHg 46%
    12:00 +32°C° 0 mm 4 mps 761 mmHg 39%
    13:00 +33°C° 0 mm 4 mps 760 mmHg 33%
    14:00 +32°C° 0 mm 5 mps 759 mmHg 40%
    15:00 +29°C° 0 mm 5 mps 759 mmHg 47%
    16:00 +27°C° 0 mm 5 mps 759 mmHg 54%
    17:00 +26°C° 0.6 mm 5 mps 759 mmHg 63%
    18:00 +23°C° 0.6 mm 5 mps 759 mmHg 72%
    19:00 +21°C° 0.6 mm 5 mps 760 mmHg 81%
    20:00 +21°C° 0 mm 5 mps 760 mmHg 82%
    21:00 +21°C° 0 mm 5 mps 761 mmHg 83%
    22:00 +20°C° 0 mm 5 mps 761 mmHg 84%
    23:00 +20°C° 0 mm 5 mps 761 mmHg 85%

    23 September, Saturday

    Time Temperature Precipitation Wind Pressure Humidity
    00:00 +20°C° 0 mm 5 mps 761 mmHg 87%
    01:00 +19°C° 0 mm 4 mps 760 mmHg 89%
    02:00 +19°C° 0 mm 4 mps 760 mmHg 89%
    03:00 +19°C° 0 mm 3 mps 760 mmHg 89%
    04:00 +19°C° 0 mm 3 mps 760 mmHg 90%
    05:00 +19°C° 0 mm 3 mps 760 mmHg 87%
    06:00 +20°C° 0 mm 3 mps 761 mmHg 84%
    07:00 +20°C° 0 mm 4 mps 761 mmHg 82%
    08:00 +23°C° 0 mm 4 mps 761 mmHg 70%
    09:00 +26°C° 0 mm 4 mps 760 mmHg 58%
    10:00 +29°C° 0 mm 5 mps 760 mmHg 46%
    11:00 +32°C° 0 mm 5 mps 759 mmHg 40%
    12:00 +34°C° 0 mm 5 mps 758 mmHg 34%
    13:00 +36°C° 0 mm 5 mps 757 mmHg 28%
    14:00 +35°C° 0 mm 5 mps 757 mmHg 30%
    15:00 +34°C° 0 mm 6 mps 756 mmHg 32%
    16:00 +34°C° 0 mm 6 mps 756 mmHg 35%
    17:00 +32°C° 0 mm 6 mps 756 mmHg 41%
    18:00 +29°C° 0 mm 6 mps 757 mmHg 48%
    19:00 +27°C° 0 mm 6 mps 757 mmHg 54%
    20:00 +27°C° 0 mm 6 mps 758 mmHg 56%
    21:00 +26°C° 0 mm 6 mps 758 mmHg 59%
    22:00 +25°C° 0 mm 5 mps 758 mmHg 61%
    23:00 +25°C° 0 mm 5 mps 758 mmHg 60%

    24 September, Sunday

    Time Temperature Precipitation Wind Pressure Humidity
    00:00 +23°C° 0 mm 5 mps 757 mmHg 59%
    01:00 +23°C° 0 mm 5 mps 757 mmHg 59%
    02:00 +23°C° 0 mm 5 mps 757 mmHg 58%
    03:00 +22°C° 0 mm 4 mps 757 mmHg 58%
    04:00 +22°C° 0 mm 4 mps 757 mmHg 57%
    05:00 +23°C° 0 mm 4 mps 757 mmHg 53%
    06:00 +25°C° 0 mm 5 mps 757 mmHg 50%
    07:00 +25°C° 0 mm 5 mps 758 mmHg 46%
    08:00 +28°C° 0 mm 5 mps 758 mmHg 37%
    09:00 +33°C° 0 mm 5 mps 758 mmHg 29%
    10:00 +36°C° 0 mm 5 mps 757 mmHg 21%
    11:00 +38°C° 0 mm 6 mps 757 mmHg 19%
    12:00 +39°C° 0 mm 6 mps 756 mmHg 17%
    13:00 +41°C° 0 mm 7 mps 755 mmHg 15%
    14:00 +41°C° 0 mm 7 mps 755 mmHg 16%
    15:00 +40°C° 0 mm 7 mps 754 mmHg 16%
    16:00 +40°C° 0 mm 7 mps 754 mmHg 17%
    17:00 +38°C° 0 mm 7 mps 755 mmHg 21%
    18:00 +34°C° 0 mm 6 mps 755 mmHg 25%
    19:00 +32°C° 0 mm 6 mps 756 mmHg 29%
    20:00 +30°C° 0 mm 5 mps 756 mmHg 32%
    21:00 +29°C° 0 mm 4 mps 757 mmHg 34%
    22:00 +29°C° 0 mm 4 mps 757 mmHg 36%
    23:00 +28°C° 0 mm 4 mps 757 mmHg 39%

    25 September, Monday

    Time Temperature Precipitation Wind Pressure Humidity
    00:00 +27°C° 0 mm 4 mps 756 mmHg 42%
    01:00 +26°C° 0 mm 4 mps 756 mmHg 44%
    02:00 +26°C° 0 mm 4 mps 756 mmHg 45%
    03:00 +25°C° 0 mm 4 mps 756 mmHg 46%
    04:00 +25°C° 0 mm 4 mps 756 mmHg 47%
    05:00 +26°C° 0 mm 4 mps 757 mmHg 43%
    06:00 +27°C° 0 mm 4 mps 758 mmHg 39%
    07:00 +27°C° 0 mm 4 mps 759 mmHg 35%
    08:00 +30°C° 0 mm 4 mps 759 mmHg 29%
    09:00 +34°C° 0 mm 4 mps 758 mmHg 23%
    10:00 +37°C° 0 mm 4 mps 758 mmHg 17%
    11:00 +39°C° 0 mm 5 mps 757 mmHg 16%
    12:00 +40°C° 0 mm 6 mps 757 mmHg 15%
    13:00 +41°C° 0 mm 6 mps 756 mmHg 14%
    14:00 +40°C° 0 mm 6 mps 756 mmHg 16%
    15:00 +40°C° 0 mm 7 mps 755 mmHg 18%
    16:00 +39°C° 0 mm 7 mps 755 mmHg 19%
    17:00 +36°C° 0 mm 7 mps 756 mmHg 23%
    18:00 +34°C° 0 mm 6 mps 757 mmHg 27%
    19:00 +32°C° 0 mm 6 mps 757 mmHg 32%
    20:00 +30°C° 0 mm 5 mps 758 mmHg 34%
    21:00 +29°C° 0 mm 4 mps 758 mmHg 36%
    22:00 +28°C° 0 mm 3 mps 759 mmHg 39%
    23:00 +27°C° 0 mm 3 mps 759 mmHg 43%
    Show more